Year,Month,Day,Hour,Minute,Value (Times are PST for temperature in C)
2018,06,11,00,00,7.90
2018,06,11,00,01,7.90
2018,06,11,00,02,7.90
2018,06,11,00,03,7.80
2018,06,11,00,04,7.80
2018,06,11,00,05,7.80
2018,06,11,00,06,7.80
2018,06,11,00,07,7.80
2018,06,11,00,08,7.80
2018,06,11,00,09,7.80
2018,06,11,00,10,7.80
2018,06,11,00,11,7.80
2018,06,11,00,12,7.80
2018,06,11,00,13,7.70
2018,06,11,00,14,7.70
2018,06,11,00,15,7.70
2018,06,11,00,16,7.70
2018,06,11,00,17,7.70
2018,06,11,00,18,7.70
2018,06,11,00,19,7.70
2018,06,11,00,20,7.70
2018,06,11,00,21,7.70
2018,06,11,00,22,7.60
2018,06,11,00,23,7.60
2018,06,11,00,24,7.60
2018,06,11,00,25,7.60
2018,06,11,00,26,7.60
2018,06,11,00,27,7.60
2018,06,11,00,28,7.50
2018,06,11,00,29,7.50
2018,06,11,00,30,7.50
2018,06,11,00,31,7.40
2018,06,11,00,32,7.40
2018,06,11,00,33,7.40
2018,06,11,00,34,7.40
2018,06,11,00,35,7.30
2018,06,11,00,36,7.30
2018,06,11,00,37,7.30
2018,06,11,00,38,7.30
2018,06,11,00,39,7.30
2018,06,11,00,40,7.20
2018,06,11,00,41,7.20
2018,06,11,00,42,7.20
2018,06,11,00,43,7.20
2018,06,11,00,44,7.20
2018,06,11,00,45,7.20
2018,06,11,00,46,7.20
2018,06,11,00,47,7.20
2018,06,11,00,48,7.20
2018,06,11,00,49,7.20
2018,06,11,00,50,7.20
2018,06,11,00,51,7.20
2018,06,11,00,52,7.20
2018,06,11,00,53,7.20
2018,06,11,00,54,7.20
2018,06,11,00,55,7.10
2018,06,11,00,56,7.10
2018,06,11,00,57,7.10
2018,06,11,00,58,7.10
2018,06,11,00,59,7.10
2018,06,11,01,00,7.10
2018,06,11,01,01,7.00
2018,06,11,01,02,7.00
2018,06,11,01,03,7.00
2018,06,11,01,04,7.00
2018,06,11,01,05,7.00
2018,06,11,01,06,7.00
2018,06,11,01,07,6.90
2018,06,11,01,08,6.90
2018,06,11,01,09,6.90
2018,06,11,01,10,6.80
2018,06,11,01,11,6.80
2018,06,11,01,12,6.80
2018,06,11,01,13,6.80
2018,06,11,01,14,6.80
2018,06,11,01,15,6.80
2018,06,11,01,16,6.80
2018,06,11,01,17,6.70
2018,06,11,01,18,6.80
2018,06,11,01,19,6.80
2018,06,11,01,20,6.70
2018,06,11,01,21,6.80
2018,06,11,01,22,6.70
2018,06,11,01,23,6.80
2018,06,11,01,24,6.80
2018,06,11,01,25,6.80
2018,06,11,01,26,6.80
2018,06,11,01,27,6.80
2018,06,11,01,28,6.80
2018,06,11,01,29,6.80
2018,06,11,01,30,6.80
2018,06,11,01,31,6.80
2018,06,11,01,32,6.80
2018,06,11,01,33,6.80
2018,06,11,01,34,6.80
2018,06,11,01,35,6.80
2018,06,11,01,36,6.70
2018,06,11,01,37,6.70
2018,06,11,01,38,6.70
2018,06,11,01,39,6.70
2018,06,11,01,40,6.70
2018,06,11,01,41,6.70
2018,06,11,01,42,6.70
2018,06,11,01,43,6.70
2018,06,11,01,44,6.70
2018,06,11,01,45,6.70
2018,06,11,01,46,6.70
2018,06,11,01,47,6.70
2018,06,11,01,48,6.70
2018,06,11,01,49,6.70
2018,06,11,01,50,6.70
2018,06,11,01,51,6.70
2018,06,11,01,52,6.70
2018,06,11,01,53,6.70
2018,06,11,01,54,6.70
2018,06,11,01,55,6.70
2018,06,11,01,56,6.70
2018,06,11,01,57,6.70
2018,06,11,01,58,6.70
2018,06,11,01,59,6.70
2018,06,11,02,00,6.70
2018,06,11,02,01,6.80
2018,06,11,02,02,6.80
2018,06,11,02,03,6.80
2018,06,11,02,04,6.80
2018,06,11,02,05,6.90
2018,06,11,02,06,6.90
2018,06,11,02,07,6.90
2018,06,11,02,08,6.90
2018,06,11,02,09,6.90
2018,06,11,02,10,6.90
2018,06,11,02,11,6.90
2018,06,11,02,12,6.90
2018,06,11,02,13,6.90
2018,06,11,02,14,6.80
2018,06,11,02,15,6.80
2018,06,11,02,16,6.80
2018,06,11,02,17,6.80
2018,06,11,02,18,6.80
2018,06,11,02,19,6.80
2018,06,11,02,20,6.80
2018,06,11,02,21,6.80
2018,06,11,02,22,6.80
2018,06,11,02,23,6.80
2018,06,11,02,24,6.80
2018,06,11,02,25,6.80
2018,06,11,02,26,6.80
2018,06,11,02,27,6.80
2018,06,11,02,28,6.80
2018,06,11,02,29,6.80
2018,06,11,02,30,6.80
2018,06,11,02,31,6.80
2018,06,11,02,32,6.80
2018,06,11,02,33,6.70
2018,06,11,02,34,6.70
2018,06,11,02,35,6.70
2018,06,11,02,36,6.60
2018,06,11,02,37,6.60
2018,06,11,02,38,6.60
2018,06,11,02,39,6.60
2018,06,11,02,40,6.60
2018,06,11,02,41,6.60
2018,06,11,02,42,6.60
2018,06,11,02,43,6.60
2018,06,11,02,44,6.50
2018,06,11,02,45,6.50
2018,06,11,02,46,6.50
2018,06,11,02,47,6.50
2018,06,11,02,48,6.60
2018,06,11,02,49,6.60
2018,06,11,02,50,6.50
2018,06,11,02,51,6.50
2018,06,11,02,52,6.50
2018,06,11,02,53,6.50
2018,06,11,02,54,6.50
2018,06,11,02,55,6.50
2018,06,11,02,56,6.50
2018,06,11,02,57,6.50
2018,06,11,02,58,6.50
2018,06,11,02,59,6.50
2018,06,11,03,00,6.50
2018,06,11,03,01,6.50
2018,06,11,03,02,6.40
2018,06,11,03,03,6.50
2018,06,11,03,04,6.50
2018,06,11,03,05,6.50
2018,06,11,03,06,6.50
2018,06,11,03,07,6.50
2018,06,11,03,08,6.50
2018,06,11,03,09,6.40
2018,06,11,03,10,6.40
2018,06,11,03,11,6.40
2018,06,11,03,12,6.40
2018,06,11,03,13,6.40
2018,06,11,03,14,6.40
2018,06,11,03,15,6.40
2018,06,11,03,16,6.40
2018,06,11,03,17,6.40
2018,06,11,03,18,6.30
2018,06,11,03,19,6.40
2018,06,11,03,20,6.30
2018,06,11,03,21,6.40
2018,06,11,03,22,6.30
2018,06,11,03,23,6.30
2018,06,11,03,24,6.30
2018,06,11,03,25,6.30
2018,06,11,03,26,6.30
2018,06,11,03,27,6.30
2018,06,11,03,28,6.30
2018,06,11,03,29,6.30
2018,06,11,03,30,6.30
2018,06,11,03,31,6.30
2018,06,11,03,32,6.30
2018,06,11,03,33,6.30
2018,06,11,03,34,6.30
2018,06,11,03,35,6.30
2018,06,11,03,36,6.30
2018,06,11,03,37,6.30
2018,06,11,03,38,6.30
2018,06,11,03,39,6.30
2018,06,11,03,40,6.30
2018,06,11,03,41,6.30
2018,06,11,03,42,6.20
2018,06,11,03,43,6.20
2018,06,11,03,44,6.20
2018,06,11,03,45,6.20
2018,06,11,03,46,6.20
2018,06,11,03,47,6.20
2018,06,11,03,48,6.20
2018,06,11,03,49,6.30
2018,06,11,03,50,6.20
2018,06,11,03,51,6.20
2018,06,11,03,52,6.20
2018,06,11,03,53,6.20
2018,06,11,03,54,6.20
2018,06,11,03,55,6.20
2018,06,11,03,56,6.20
2018,06,11,03,57,6.20
2018,06,11,03,58,6.20
2018,06,11,03,59,6.20
2018,06,11,04,00,6.20
2018,06,11,04,01,6.20
2018,06,11,04,02,6.20
2018,06,11,04,03,6.20
2018,06,11,04,04,6.20
2018,06,11,04,05,6.20
2018,06,11,04,06,6.20
2018,06,11,04,07,6.20
2018,06,11,04,08,6.20
2018,06,11,04,09,6.20
2018,06,11,04,10,6.20
2018,06,11,04,11,6.20
2018,06,11,04,12,6.20
2018,06,11,04,13,6.20
2018,06,11,04,14,6.20
2018,06,11,04,15,6.20
2018,06,11,04,16,6.20
2018,06,11,04,17,6.20
2018,06,11,04,18,6.20
2018,06,11,04,19,6.20
2018,06,11,04,20,6.20
2018,06,11,04,21,6.20
2018,06,11,04,22,6.20
2018,06,11,04,23,6.20
2018,06,11,04,24,6.20
2018,06,11,04,25,6.20
2018,06,11,04,26,6.20
2018,06,11,04,27,6.10
2018,06,11,04,28,6.10
2018,06,11,04,29,6.10
2018,06,11,04,30,6.10
2018,06,11,04,31,6.10
2018,06,11,04,32,6.10
2018,06,11,04,33,6.10
2018,06,11,04,34,6.10
2018,06,11,04,35,6.00
2018,06,11,04,36,6.10
2018,06,11,04,37,6.00
2018,06,11,04,38,6.00
2018,06,11,04,39,6.00
2018,06,11,04,40,6.00
2018,06,11,04,41,6.00
2018,06,11,04,42,6.00
2018,06,11,04,43,6.00
2018,06,11,04,44,6.00
2018,06,11,04,45,6.00
2018,06,11,04,46,6.00
2018,06,11,04,47,6.00
2018,06,11,04,48,6.00
2018,06,11,04,49,6.00
2018,06,11,04,50,6.00
2018,06,11,04,51,6.00
2018,06,11,04,52,6.00
2018,06,11,04,53,6.00
2018,06,11,04,54,5.90
2018,06,11,04,55,5.90
2018,06,11,04,56,5.90
2018,06,11,04,57,6.00
2018,06,11,04,58,5.90
2018,06,11,04,59,6.00
2018,06,11,05,00,6.00
2018,06,11,05,01,6.00
2018,06,11,05,02,6.00
2018,06,11,05,03,5.90
2018,06,11,05,04,5.90
2018,06,11,05,05,5.90
2018,06,11,05,06,5.90
2018,06,11,05,07,5.90
2018,06,11,05,08,5.90
2018,06,11,05,09,5.90
2018,06,11,05,10,5.90
2018,06,11,05,11,5.90
2018,06,11,05,12,6.00
2018,06,11,05,13,6.00
2018,06,11,05,14,6.00
2018,06,11,05,15,6.00
2018,06,11,05,16,6.10
2018,06,11,05,17,6.10
2018,06,11,05,18,6.20
2018,06,11,05,19,6.20
2018,06,11,05,20,6.20
2018,06,11,05,21,6.10
2018,06,11,05,22,6.10
2018,06,11,05,23,6.10
2018,06,11,05,24,6.10
2018,06,11,05,25,6.10
2018,06,11,05,26,6.00
2018,06,11,05,27,6.00
2018,06,11,05,28,6.00
2018,06,11,05,29,6.00
2018,06,11,05,30,6.00
2018,06,11,05,31,5.90
2018,06,11,05,32,5.90
2018,06,11,05,33,5.90
2018,06,11,05,34,5.90
2018,06,11,05,35,5.90
2018,06,11,05,36,5.90
2018,06,11,05,37,5.90
2018,06,11,05,38,5.90
2018,06,11,05,39,5.90
2018,06,11,05,40,6.00
2018,06,11,05,41,5.90
2018,06,11,05,42,5.90
2018,06,11,05,43,5.90
2018,06,11,05,44,5.90
2018,06,11,05,45,5.90
2018,06,11,05,46,5.90
2018,06,11,05,47,6.00
2018,06,11,05,48,5.90
2018,06,11,05,49,6.00
2018,06,11,05,50,6.00
2018,06,11,05,51,6.00
2018,06,11,05,52,6.00
2018,06,11,05,53,6.00
2018,06,11,05,54,6.00
2018,06,11,05,55,6.00
2018,06,11,05,56,6.10
2018,06,11,05,57,6.10
2018,06,11,05,58,6.10
2018,06,11,05,59,6.10
2018,06,11,06,00,6.10
2018,06,11,06,01,6.10
2018,06,11,06,02,6.10
2018,06,11,06,03,6.10
2018,06,11,06,04,6.10
2018,06,11,06,05,6.10
2018,06,11,06,06,6.10
2018,06,11,06,07,6.10
2018,06,11,06,08,6.10
2018,06,11,06,09,6.10
2018,06,11,06,10,6.10
2018,06,11,06,11,6.20
2018,06,11,06,12,6.20
2018,06,11,06,13,6.20
2018,06,11,06,14,6.20
2018,06,11,06,15,6.20
2018,06,11,06,16,6.20
2018,06,11,06,17,6.20
2018,06,11,06,18,6.20
2018,06,11,06,19,6.20
2018,06,11,06,20,6.30
2018,06,11,06,21,6.30
2018,06,11,06,22,6.30
2018,06,11,06,23,6.30
2018,06,11,06,24,6.30
2018,06,11,06,25,6.30
2018,06,11,06,26,6.40
2018,06,11,06,27,6.40
2018,06,11,06,28,6.40
2018,06,11,06,29,6.40
2018,06,11,06,30,6.40
2018,06,11,06,31,6.40
2018,06,11,06,32,6.50
2018,06,11,06,33,6.50
2018,06,11,06,34,6.50
2018,06,11,06,35,6.60
2018,06,11,06,36,6.70
2018,06,11,06,37,6.70
2018,06,11,06,38,6.80
2018,06,11,06,39,6.80
2018,06,11,06,40,6.90
2018,06,11,06,41,6.90
2018,06,11,06,42,6.90
2018,06,11,06,43,7.00
2018,06,11,06,44,7.00
2018,06,11,06,45,7.10
2018,06,11,06,46,7.20
2018,06,11,06,47,7.30
2018,06,11,06,48,7.30
2018,06,11,06,49,7.40
2018,06,11,06,50,7.50
2018,06,11,06,51,7.50
2018,06,11,06,52,7.60
2018,06,11,06,53,7.70
2018,06,11,06,54,7.70
2018,06,11,06,55,7.80
2018,06,11,06,56,7.90
2018,06,11,06,57,7.90
2018,06,11,06,58,8.00
2018,06,11,06,59,8.00
2018,06,11,07,00,8.10
2018,06,11,07,01,8.20
2018,06,11,07,02,8.20
2018,06,11,07,03,8.20
2018,06,11,07,04,8.20
2018,06,11,07,05,8.30
2018,06,11,07,06,8.30
2018,06,11,07,07,8.40
2018,06,11,07,08,8.50
2018,06,11,07,09,8.60
2018,06,11,07,10,8.60
2018,06,11,07,11,8.60
2018,06,11,07,12,8.70
2018,06,11,07,13,8.70
2018,06,11,07,14,8.80
2018,06,11,07,15,8.90
2018,06,11,07,16,8.90
2018,06,11,07,17,9.00
2018,06,11,07,18,9.10
2018,06,11,07,19,9.20
2018,06,11,07,20,9.30
2018,06,11,07,21,9.40
2018,06,11,07,22,9.40
2018,06,11,07,23,9.50
2018,06,11,07,24,9.60
2018,06,11,07,25,9.60
2018,06,11,07,26,9.60
2018,06,11,07,27,9.70
2018,06,11,07,28,9.70
2018,06,11,07,29,9.70
2018,06,11,07,30,9.70
2018,06,11,07,31,9.80
2018,06,11,07,32,9.80
2018,06,11,07,33,9.90
2018,06,11,07,34,9.90
2018,06,11,07,35,10.00
2018,06,11,07,36,10.10
2018,06,11,07,37,10.10
2018,06,11,07,38,10.20
2018,06,11,07,39,10.20
2018,06,11,07,40,10.20
2018,06,11,07,41,10.20
2018,06,11,07,42,10.30
2018,06,11,07,43,10.30
2018,06,11,07,44,10.40
2018,06,11,07,45,10.40
2018,06,11,07,46,10.40
2018,06,11,07,47,10.50
2018,06,11,07,48,10.50
2018,06,11,07,49,10.60
2018,06,11,07,50,10.60
2018,06,11,07,51,10.70
2018,06,11,07,52,10.70
2018,06,11,07,53,10.70
2018,06,11,07,54,10.80
2018,06,11,07,55,10.80
2018,06,11,07,56,10.80
2018,06,11,07,57,10.80
2018,06,11,07,58,10.90
2018,06,11,07,59,10.90
2018,06,11,08,00,10.90
2018,06,11,08,01,11.00
2018,06,11,08,02,11.00
2018,06,11,08,03,11.00
2018,06,11,08,04,11.00
2018,06,11,08,05,11.00
2018,06,11,08,06,11.10
2018,06,11,08,07,11.10
2018,06,11,08,08,11.10
2018,06,11,08,09,11.10
2018,06,11,08,10,11.10
2018,06,11,08,11,11.20
2018,06,11,08,12,11.20
2018,06,11,08,13,11.20
2018,06,11,08,14,11.20
2018,06,11,08,15,11.30
2018,06,11,08,16,11.30
2018,06,11,08,17,11.30
2018,06,11,08,18,11.40
2018,06,11,08,19,11.40
2018,06,11,08,20,11.40
2018,06,11,08,21,11.40
2018,06,11,08,22,11.40
2018,06,11,08,23,11.50
2018,06,11,08,24,11.50
2018,06,11,08,25,11.60
2018,06,11,08,26,11.60
2018,06,11,08,27,11.60
2018,06,11,08,28,11.60
2018,06,11,08,29,11.70
2018,06,11,08,30,11.70
2018,06,11,08,31,11.70
2018,06,11,08,32,11.70
2018,06,11,08,33,11.70
2018,06,11,08,34,11.80
2018,06,11,08,35,11.80
2018,06,11,08,36,11.80
2018,06,11,08,37,11.80
2018,06,11,08,38,11.80
2018,06,11,08,39,11.90
2018,06,11,08,40,11.90
2018,06,11,08,41,11.90
2018,06,11,08,42,12.00
2018,06,11,08,43,12.10
2018,06,11,08,44,12.20
2018,06,11,08,45,12.20
2018,06,11,08,46,12.30
2018,06,11,08,47,12.30
2018,06,11,08,48,12.40
2018,06,11,08,49,12.40
2018,06,11,08,50,12.40
2018,06,11,08,51,12.40
2018,06,11,08,52,12.50
2018,06,11,08,53,12.50
2018,06,11,08,54,12.50
2018,06,11,08,55,12.50
2018,06,11,08,56,12.60
2018,06,11,08,57,12.70
2018,06,11,08,58,12.80
2018,06,11,08,59,13.00
2018,06,11,09,00,13.00
2018,06,11,09,01,13.10
2018,06,11,09,02,13.10
2018,06,11,09,03,13.20
2018,06,11,09,04,13.30
2018,06,11,09,05,13.30
2018,06,11,09,06,13.30
2018,06,11,09,07,13.30
2018,06,11,09,08,13.30
2018,06,11,09,09,13.40
2018,06,11,09,10,13.30
2018,06,11,09,11,13.40
2018,06,11,09,12,13.40
2018,06,11,09,13,13.50
2018,06,11,09,14,13.70
2018,06,11,09,15,13.80
2018,06,11,09,16,13.80
2018,06,11,09,17,13.90
2018,06,11,09,18,13.90
2018,06,11,09,19,14.00
2018,06,11,09,20,14.00
2018,06,11,09,21,14.10
2018,06,11,09,22,14.10
2018,06,11,09,23,14.10
2018,06,11,09,24,14.10
2018,06,11,09,25,14.20
2018,06,11,09,26,14.20
2018,06,11,09,27,14.20
2018,06,11,09,28,14.30
2018,06,11,09,29,14.30
2018,06,11,09,30,14.30
2018,06,11,09,31,14.20
2018,06,11,09,32,14.20
2018,06,11,09,33,14.20
2018,06,11,09,34,14.20
2018,06,11,09,35,14.30
2018,06,11,09,36,14.30
2018,06,11,09,37,14.30
2018,06,11,09,38,14.40
2018,06,11,09,39,14.40
2018,06,11,09,40,14.40
2018,06,11,09,41,14.40
2018,06,11,09,42,14.40
2018,06,11,09,43,14.40
2018,06,11,09,44,14.40
2018,06,11,09,45,14.40
2018,06,11,09,46,14.40
2018,06,11,09,47,14.50
2018,06,11,09,48,14.50
2018,06,11,09,49,14.60
2018,06,11,09,50,14.60
2018,06,11,09,51,14.70
2018,06,11,09,52,14.70
2018,06,11,09,53,14.70
2018,06,11,09,54,14.70
2018,06,11,09,55,14.60
2018,06,11,09,56,14.70
2018,06,11,09,57,14.70
2018,06,11,09,58,14.70
2018,06,11,09,59,14.70
2018,06,11,10,00,14.60
2018,06,11,10,01,14.60
2018,06,11,10,02,14.60
2018,06,11,10,03,14.60
2018,06,11,10,04,14.60
2018,06,11,10,05,14.70
2018,06,11,10,06,14.70
2018,06,11,10,07,14.70
2018,06,11,10,08,14.70
2018,06,11,10,09,14.70
2018,06,11,10,10,14.70
2018,06,11,10,11,14.70
2018,06,11,10,12,14.80
2018,06,11,10,13,14.80
2018,06,11,10,14,14.90
2018,06,11,10,15,15.10
2018,06,11,10,16,15.10
2018,06,11,10,17,15.20
2018,06,11,10,18,15.30
2018,06,11,10,19,15.30
2018,06,11,10,20,15.40
2018,06,11,10,21,15.40
2018,06,11,10,22,15.40
2018,06,11,10,23,15.40
2018,06,11,10,24,15.50
2018,06,11,10,25,15.50
2018,06,11,10,26,15.60
2018,06,11,10,27,15.60
2018,06,11,10,28,15.60
2018,06,11,10,29,15.60
2018,06,11,10,30,15.60
2018,06,11,10,31,15.60
2018,06,11,10,32,15.60
2018,06,11,10,33,15.50
2018,06,11,10,34,15.40
2018,06,11,10,35,15.40
2018,06,11,10,36,15.40
2018,06,11,10,37,15.40
2018,06,11,10,38,15.40
2018,06,11,10,39,15.50
2018,06,11,10,40,15.60
2018,06,11,10,41,15.60
2018,06,11,10,42,15.50
2018,06,11,10,43,15.50
2018,06,11,10,44,15.50
2018,06,11,10,45,15.60
2018,06,11,10,46,15.70
2018,06,11,10,47,15.80
2018,06,11,10,48,15.80
2018,06,11,10,49,15.90
2018,06,11,10,50,15.90
2018,06,11,10,51,15.90
2018,06,11,10,52,16.00
2018,06,11,10,53,16.00
2018,06,11,10,54,16.10
2018,06,11,10,55,16.20
2018,06,11,10,56,16.30
2018,06,11,10,57,16.20
2018,06,11,10,58,16.10
2018,06,11,10,59,16.00
2018,06,11,11,00,16.00
2018,06,11,11,01,16.00
2018,06,11,11,02,16.10
2018,06,11,11,03,16.20
2018,06,11,11,04,16.30
2018,06,11,11,05,16.30
2018,06,11,11,06,16.30
2018,06,11,11,07,16.30
2018,06,11,11,08,16.30
2018,06,11,11,09,16.40
2018,06,11,11,10,16.50
2018,06,11,11,11,16.60
2018,06,11,11,12,16.70
2018,06,11,11,13,16.70
2018,06,11,11,14,16.60
2018,06,11,11,15,16.60
2018,06,11,11,16,16.60
2018,06,11,11,17,16.60
2018,06,11,11,18,16.60
2018,06,11,11,19,16.60
2018,06,11,11,20,16.60
2018,06,11,11,21,16.50
2018,06,11,11,22,16.50
2018,06,11,11,23,16.40
2018,06,11,11,24,16.40
2018,06,11,11,25,16.30
2018,06,11,11,26,16.30
2018,06,11,11,27,16.30
2018,06,11,11,28,16.30
2018,06,11,11,29,16.30
2018,06,11,11,30,16.30
2018,06,11,11,31,16.30
2018,06,11,11,32,16.30
2018,06,11,11,33,16.20
2018,06,11,11,34,16.20
2018,06,11,11,35,16.20
2018,06,11,11,36,16.30
2018,06,11,11,37,16.30
2018,06,11,11,38,16.40
2018,06,11,11,39,16.40
2018,06,11,11,40,16.40
2018,06,11,11,41,16.40
2018,06,11,11,42,16.30
2018,06,11,11,43,16.10
2018,06,11,11,44,16.00
2018,06,11,11,45,15.90
2018,06,11,11,46,15.80
2018,06,11,11,47,15.70
2018,06,11,11,48,15.70
2018,06,11,11,49,15.70
2018,06,11,11,50,15.70
2018,06,11,11,51,15.70
2018,06,11,11,52,15.80
2018,06,11,11,53,15.90
2018,06,11,11,54,16.00
2018,06,11,11,55,16.10
2018,06,11,11,56,16.10
2018,06,11,11,57,16.10
2018,06,11,11,58,16.10
2018,06,11,11,59,16.10
2018,06,11,12,00,16.10
2018,06,11,12,01,16.10
2018,06,11,12,02,16.10
2018,06,11,12,03,16.20
2018,06,11,12,04,16.30
2018,06,11,12,05,16.40
2018,06,11,12,06,16.40
2018,06,11,12,07,16.50
2018,06,11,12,08,16.60
2018,06,11,12,09,16.60
2018,06,11,12,10,16.70
2018,06,11,12,11,16.70
2018,06,11,12,12,16.60
2018,06,11,12,13,16.60
2018,06,11,12,14,16.60
2018,06,11,12,15,16.60
2018,06,11,12,16,16.60
2018,06,11,12,17,16.70
2018,06,11,12,18,16.70
2018,06,11,12,19,16.70
2018,06,11,12,20,16.70
2018,06,11,12,21,16.80
2018,06,11,12,22,16.80
2018,06,11,12,23,16.90
2018,06,11,12,24,16.90
2018,06,11,12,25,16.80
2018,06,11,12,26,16.80
2018,06,11,12,27,16.80
2018,06,11,12,28,16.90
2018,06,11,12,29,16.90
2018,06,11,12,30,16.90
2018,06,11,12,31,16.90
2018,06,11,12,32,16.80
2018,06,11,12,33,16.80
2018,06,11,12,34,16.70
2018,06,11,12,35,16.70
2018,06,11,12,36,16.80
2018,06,11,12,37,16.90
2018,06,11,12,38,16.90
2018,06,11,12,39,17.00
2018,06,11,12,40,17.00
2018,06,11,12,41,16.90
2018,06,11,12,42,16.90
2018,06,11,12,43,16.90
2018,06,11,12,44,16.90
2018,06,11,12,45,16.90
2018,06,11,12,46,17.00
2018,06,11,12,47,17.00
2018,06,11,12,48,16.90
2018,06,11,12,49,17.00
2018,06,11,12,50,17.00
2018,06,11,12,51,17.10
2018,06,11,12,52,17.20
2018,06,11,12,53,17.10
2018,06,11,12,54,17.10
2018,06,11,12,55,17.00
2018,06,11,12,56,17.00
2018,06,11,12,57,17.00
2018,06,11,12,58,17.10
2018,06,11,12,59,17.20
2018,06,11,13,00,17.30
2018,06,11,13,01,17.30
2018,06,11,13,02,17.30
2018,06,11,13,03,17.20
2018,06,11,13,04,17.10
2018,06,11,13,05,17.20
2018,06,11,13,06,17.20
2018,06,11,13,07,17.30
2018,06,11,13,08,17.30
2018,06,11,13,09,17.40
2018,06,11,13,10,17.40
2018,06,11,13,11,17.40
2018,06,11,13,12,17.50
2018,06,11,13,13,17.50
2018,06,11,13,14,17.40
2018,06,11,13,15,17.40
2018,06,11,13,16,17.20
2018,06,11,13,17,17.20
2018,06,11,13,18,17.10
2018,06,11,13,19,17.10
2018,06,11,13,20,17.10
2018,06,11,13,21,17.10
2018,06,11,13,22,17.10
2018,06,11,13,23,17.00
2018,06,11,13,24,17.00
2018,06,11,13,25,17.00
2018,06,11,13,26,17.00
2018,06,11,13,27,17.10
2018,06,11,13,28,17.10
2018,06,11,13,29,17.10
2018,06,11,13,30,17.00
2018,06,11,13,31,17.00
2018,06,11,13,32,17.00
2018,06,11,13,33,17.10
2018,06,11,13,34,17.10
2018,06,11,13,35,17.10
2018,06,11,13,36,17.00
2018,06,11,13,37,16.90
2018,06,11,13,38,16.90
2018,06,11,13,39,16.90
2018,06,11,13,40,17.00
2018,06,11,13,41,17.10
2018,06,11,13,42,17.20
2018,06,11,13,43,17.30
2018,06,11,13,44,17.30
2018,06,11,13,45,17.20
2018,06,11,13,46,17.30
2018,06,11,13,47,17.30
2018,06,11,13,48,17.30
2018,06,11,13,49,17.30
2018,06,11,13,50,17.40
2018,06,11,13,51,17.30
2018,06,11,13,52,17.30
2018,06,11,13,53,17.20
2018,06,11,13,54,17.10
2018,06,11,13,55,17.10
2018,06,11,13,56,17.00
2018,06,11,13,57,17.00
2018,06,11,13,58,17.00
2018,06,11,13,59,17.10
2018,06,11,14,00,17.10
2018,06,11,14,01,17.10
2018,06,11,14,02,17.20
2018,06,11,14,03,17.10
2018,06,11,14,04,17.10
2018,06,11,14,05,17.10
2018,06,11,14,06,17.10
2018,06,11,14,07,17.10
2018,06,11,14,08,17.20
2018,06,11,14,09,17.30
2018,06,11,14,10,17.30
2018,06,11,14,11,17.30
2018,06,11,14,12,17.30
2018,06,11,14,13,17.20
2018,06,11,14,14,17.20
2018,06,11,14,15,17.20
2018,06,11,14,16,17.10
2018,06,11,14,17,17.10
2018,06,11,14,18,17.20
2018,06,11,14,19,17.20
2018,06,11,14,20,17.30
2018,06,11,14,21,17.30
2018,06,11,14,22,17.30
2018,06,11,14,23,17.30
2018,06,11,14,24,17.40
2018,06,11,14,25,17.50
2018,06,11,14,26,17.50
2018,06,11,14,27,17.50
2018,06,11,14,28,17.50
2018,06,11,14,29,17.60
2018,06,11,14,30,17.60
2018,06,11,14,31,17.70
2018,06,11,14,32,17.80
2018,06,11,14,33,17.80
2018,06,11,14,34,17.80
2018,06,11,14,35,17.90
2018,06,11,14,36,17.90
2018,06,11,14,37,17.90
2018,06,11,14,38,18.00
2018,06,11,14,39,18.10
2018,06,11,14,40,18.30
2018,06,11,14,41,18.40
2018,06,11,14,42,18.40
2018,06,11,14,43,18.30
2018,06,11,14,44,18.30
2018,06,11,14,45,18.30
2018,06,11,14,46,18.30
2018,06,11,14,47,18.30
2018,06,11,14,48,18.20
2018,06,11,14,49,18.20
2018,06,11,14,50,18.20
2018,06,11,14,51,18.20
2018,06,11,14,52,18.20
2018,06,11,14,53,18.20
2018,06,11,14,54,18.20
2018,06,11,14,55,18.30
2018,06,11,14,56,18.30
2018,06,11,14,57,18.30
2018,06,11,14,58,18.30
2018,06,11,14,59,18.30
2018,06,11,15,00,18.30
2018,06,11,15,01,18.30
2018,06,11,15,02,18.30
2018,06,11,15,03,18.40
2018,06,11,15,04,18.50
2018,06,11,15,05,18.50
2018,06,11,15,06,18.60
2018,06,11,15,07,18.60
2018,06,11,15,08,18.60
2018,06,11,15,09,18.60
2018,06,11,15,10,18.50
2018,06,11,15,11,18.50
2018,06,11,15,12,18.50
2018,06,11,15,13,18.50
2018,06,11,15,14,18.40
2018,06,11,15,15,18.40
2018,06,11,15,16,18.30
2018,06,11,15,17,18.30
2018,06,11,15,18,18.30
2018,06,11,15,19,18.30
2018,06,11,15,20,18.30
2018,06,11,15,21,18.40
2018,06,11,15,22,18.40
2018,06,11,15,23,18.30
2018,06,11,15,24,18.30
2018,06,11,15,25,18.20
2018,06,11,15,26,18.10
2018,06,11,15,27,18.10
2018,06,11,15,28,18.00
2018,06,11,15,29,18.00
2018,06,11,15,30,17.90
2018,06,11,15,31,17.90
2018,06,11,15,32,17.90
2018,06,11,15,33,17.90
2018,06,11,15,34,18.00
2018,06,11,15,35,18.00
2018,06,11,15,36,18.10
2018,06,11,15,37,18.10
2018,06,11,15,38,18.10
2018,06,11,15,39,18.10
2018,06,11,15,40,18.10
2018,06,11,15,41,18.10
2018,06,11,15,42,18.10
2018,06,11,15,43,18.10
2018,06,11,15,44,18.10
2018,06,11,15,45,18.20
2018,06,11,15,46,18.30
2018,06,11,15,47,18.30
2018,06,11,15,48,18.40
2018,06,11,15,49,18.40
2018,06,11,15,50,18.40
2018,06,11,15,51,18.30
2018,06,11,15,52,18.30
2018,06,11,15,53,18.30
2018,06,11,15,54,18.30
2018,06,11,15,55,18.20
2018,06,11,15,56,18.20
2018,06,11,15,57,18.20
2018,06,11,15,58,18.10
2018,06,11,15,59,18.00
2018,06,11,16,00,18.10
2018,06,11,16,01,18.20
2018,06,11,16,02,18.20
2018,06,11,16,03,18.20
2018,06,11,16,04,18.30
2018,06,11,16,05,18.20
2018,06,11,16,06,18.20
2018,06,11,16,07,18.20
2018,06,11,16,08,18.20
2018,06,11,16,09,18.20
2018,06,11,16,10,18.10
2018,06,11,16,11,18.10
2018,06,11,16,12,18.10
2018,06,11,16,13,18.10
2018,06,11,16,14,18.10
2018,06,11,16,15,18.10
2018,06,11,16,16,18.20
2018,06,11,16,17,18.30
2018,06,11,16,18,18.30
2018,06,11,16,19,18.40
2018,06,11,16,20,18.40
2018,06,11,16,21,18.40
2018,06,11,16,22,18.40
2018,06,11,16,23,18.40
2018,06,11,16,24,18.30
2018,06,11,16,25,18.30
2018,06,11,16,26,18.30
2018,06,11,16,27,18.30
2018,06,11,16,28,18.20
2018,06,11,16,29,18.20
2018,06,11,16,30,18.30
2018,06,11,16,31,18.30
2018,06,11,16,32,18.30
2018,06,11,16,33,18.30
2018,06,11,16,34,18.40
2018,06,11,16,35,18.40
2018,06,11,16,36,18.40
2018,06,11,16,37,18.40
2018,06,11,16,38,18.40
2018,06,11,16,39,18.30
2018,06,11,16,40,18.30
2018,06,11,16,41,18.30
2018,06,11,16,42,18.20
2018,06,11,16,43,18.20
2018,06,11,16,44,18.10
2018,06,11,16,45,18.10
2018,06,11,16,46,18.00
2018,06,11,16,47,18.00
2018,06,11,16,48,18.00
2018,06,11,16,49,18.10
2018,06,11,16,50,18.20
2018,06,11,16,51,18.20
2018,06,11,16,52,18.30
2018,06,11,16,53,18.30
2018,06,11,16,54,18.40
2018,06,11,16,55,18.40
2018,06,11,16,56,18.40
2018,06,11,16,57,18.40
2018,06,11,16,58,18.40
2018,06,11,16,59,18.40
2018,06,11,17,00,18.40
2018,06,11,17,01,18.40
2018,06,11,17,02,18.30
2018,06,11,17,03,18.30
2018,06,11,17,04,18.30
2018,06,11,17,05,18.30
2018,06,11,17,06,18.30
2018,06,11,17,07,18.30
2018,06,11,17,08,18.30
2018,06,11,17,09,18.40
2018,06,11,17,10,18.40
2018,06,11,17,11,18.50
2018,06,11,17,12,18.50
2018,06,11,17,13,18.50
2018,06,11,17,14,18.50
2018,06,11,17,15,18.40
2018,06,11,17,16,18.40
2018,06,11,17,17,18.40
2018,06,11,17,18,18.40
2018,06,11,17,19,18.40
2018,06,11,17,20,18.50
2018,06,11,17,21,18.50
2018,06,11,17,22,18.50
2018,06,11,17,23,18.50
2018,06,11,17,24,18.50
2018,06,11,17,25,18.50
2018,06,11,17,26,18.40
2018,06,11,17,27,18.40
2018,06,11,17,28,18.50
2018,06,11,17,29,18.50
2018,06,11,17,30,18.60
2018,06,11,17,31,18.70
2018,06,11,17,32,18.70
2018,06,11,17,33,18.80
2018,06,11,17,34,18.70
2018,06,11,17,35,18.70
2018,06,11,17,36,18.70
2018,06,11,17,37,18.70
2018,06,11,17,38,18.70
2018,06,11,17,39,18.80